Weather History for Stevens Point, WI

Change the Weather History Date:

Sunday, November 3, 2013

  Actual Average Record
Temperature  
Mean Temperature 34 °F -  
Max Temperature 45 °F 48 °F 73 °F (2008)
Min Temperature 22 °F 31 °F -2 °F (1951)
Degree Days  
Heating Degree Days 32    
Moisture  
Dew Point 30 °F    
Average Humidity 84    
Maximum Humidity 100    
Minimum Humidity 58    
Precipitation  
Precipitation 0.00 in - - ()
Sea Level Pressure  
Sea Level Pressure 30.20 in    
Wind  
Wind Speed 4 mph (SE)    
Max Wind Speed 15 mph    
Max Gust Speed 22 mph    
Visibility 7 miles    
Events Fog    
Averages and records for this station are not official NWS values.
T = Trace of Precipitation, MM = Missing Value Source: NWS Daily Summary

Daily Weather History Graph

Daily Weather History Graph

Search for Another Location

Airport:

Trip Planner

Search our weather history database for the weather conditions in past years. The results will help you decide how hot, cold, wet, or windy it might be!

Date:

Astronomy

Nov. 03, 2013 Rise Set
Actual Time 6:38 AM CST 4:44 PM CST
Civil Twilight 6:08 AM CST 5:14 PM CST
Nautical Twilight 5:33 AM CST 5:49 PM CST
Astronomical Twilight 4:59 AM CST 6:22 PM CST
Moon 6:43 AM CST (11/3) 4:57 PM CST (11/3)
Length of Visible Light 11h 06m
Length of Day
10h 05m
New Moon, 0% of the Moon is Illuminated
Nov 3
New Moon
Nov 9
First Quarter
Nov 17
Full
Nov 25
Last Quarter
Dec 2
New

Hourly Weather History & Observations

Time (CST) Temp. Windchill Dew Point Humidity Pressure Visibility Wind Dir Wind Speed Gust Speed Precip Events Conditions
12:15 AM 27.1 °F - 26.4 °F 97% 30.14 in 10.0 mi Calm Calm - N/A   Clear
12:35 AM 25.7 °F - 25.2 °F 98% 30.15 in 10.0 mi Calm Calm - N/A   Clear
12:55 AM 25.7 °F - 25.5 °F 99% 30.15 in 10.0 mi Calm Calm - N/A   Clear
1:15 AM 25.7 °F - 25.3 °F 99% 30.16 in 10.0 mi Calm Calm - N/A   Clear
1:35 AM 25.7 °F - 25.3 °F 99% 30.17 in 7.0 mi Calm Calm - N/A   Clear
1:14 AM 24.8 °F - 24.8 °F 100% 30.18 in 0.5 mi Calm Calm - N/A Fog Light Freezing Fog
1:35 AM 22.8 °F - 22.5 °F 99% 30.18 in 10.0 mi Calm Calm - N/A   Mostly Cloudy
1:55 AM 25.0 °F - 24.4 °F 98% 30.18 in 7.0 mi Calm Calm - N/A   Scattered Clouds
2:15 AM 23.9 °F - 22.6 °F 95% 30.19 in 10.0 mi Calm Calm - N/A   Mostly Cloudy
2:35 AM 23.9 °F - 23.4 °F 98% 30.19 in 1.5 mi Calm Calm - N/A   Overcast
2:55 AM 24.4 °F - 24.1 °F 99% 30.19 in 0.2 mi Calm Calm - N/A Fog Light Freezing Fog
3:15 AM 23.4 °F - 23.0 °F 99% 30.20 in 1.0 mi Calm Calm - N/A   Overcast
3:35 AM 23.0 °F - 22.6 °F 99% 30.21 in 0.8 mi Calm Calm - N/A   Overcast
3:55 AM 23.0 °F - 22.6 °F 99% 30.21 in 0.5 mi Calm Calm - N/A Fog Light Freezing Fog
4:15 AM 23.0 °F - 22.5 °F 98% 30.21 in 4.0 mi Calm Calm - N/A   Overcast
4:35 AM 22.6 °F - 22.1 °F 98% 30.22 in 0.2 mi Calm Calm - N/A Fog Light Freezing Fog
4:55 AM 22.3 °F - 21.9 °F 99% 30.22 in 0.2 mi Calm Calm - N/A Fog Light Freezing Fog
5:15 AM 22.5 °F - 21.9 °F 98% 30.22 in 2.5 mi Calm Calm - N/A   Overcast
5:35 AM 24.6 °F - 24.3 °F 99% 30.22 in 0.5 mi Calm Calm - N/A Fog Light Freezing Fog
5:55 AM 24.8 °F - 24.4 °F 99% 30.22 in 0.2 mi Calm Calm - N/A Fog Light Freezing Fog
6:15 AM 26.1 °F - 25.7 °F 99% 30.23 in 0.2 mi Calm Calm - N/A Fog Light Freezing Fog
6:35 AM 27.7 °F - 27.5 °F 99% 30.22 in 0.2 mi Calm Calm - N/A Fog Light Freezing Fog
6:55 AM 28.9 °F - 28.9 °F 100% 30.23 in 0.2 mi Calm Calm - N/A Fog Light Freezing Fog
7:15 AM 29.3 °F - 29.3 °F 100% 30.23 in 0.2 mi Calm Calm - N/A Fog Light Freezing Fog
7:35 AM 29.8 °F 26.3 °F 29.8 °F 100% 30.25 in 0.2 mi ESE 3.5 mph - N/A Fog Light Freezing Fog
7:55 AM 30.0 °F 26.5 °F 30.0 °F 100% 30.26 in 0.2 mi SE 3.5 mph - N/A Fog Light Freezing Fog
8:15 AM 30.4 °F 25.6 °F 30.4 °F 100% 30.25 in 0.2 mi SE 4.6 mph - N/A Fog Light Freezing Fog
8:35 AM 31.1 °F 27.7 °F 31.1 °F 100% 30.26 in 0.2 mi ESE 3.5 mph - N/A Fog Light Freezing Fog
8:55 AM 32.0 °F 27.5 °F 32.0 °F 100% 30.26 in 0.5 mi SE 4.6 mph - N/A Fog Fog
9:15 AM 32.5 °F 27.1 °F 32.5 °F 100% 30.26 in 1.5 mi SE 5.8 mph - N/A   Overcast
9:35 AM 33.8 °F 28.6 °F 33.8 °F 100% 30.27 in 5.0 mi SE 5.8 mph - N/A   Overcast
9:55 AM 34.3 °F 28.4 °F 34.3 °F 100% 30.27 in 7.0 mi SSE 6.9 mph - N/A   Overcast
10:15 AM 34.9 °F 27.7 °F 34.9 °F 100% 30.26 in 10.0 mi SE 9.2 mph - N/A   Overcast
10:35 AM 36.5 °F 30.3 °F 36.0 °F 98% 30.26 in 10.0 mi SSE 8.1 mph - N/A   Overcast
10:55 AM 37.4 °F 29.3 °F 35.1 °F 91% 30.26 in 10.0 mi SSE 12.7 mph - N/A   Overcast
11:15 AM 39.0 °F 31.4 °F 34.5 °F 84% 30.25 in 10.0 mi SSE 12.7 mph - N/A   Overcast
11:35 AM 41.0 °F 34.3 °F 35.1 °F 79% 30.24 in 10.0 mi SE 11.5 mph - N/A   Overcast
11:55 AM 41.9 °F 35.9 °F 33.8 °F 73% 30.23 in 10.0 mi SE 10.4 mph - N/A   Overcast
12:15 PM 41.9 °F 34.3 °F 32.5 °F 69% 30.22 in 10.0 mi SSE 15.0 mph 18.4 mph N/A   Mostly Cloudy
12:35 PM 43.0 °F 37.7 °F 32.5 °F 67% 30.22 in 10.0 mi SSE 9.2 mph - N/A   Scattered Clouds
12:55 PM 43.2 °F 37.0 °F 32.4 °F 66% 30.21 in 10.0 mi SE 11.5 mph 16.1 mph N/A   Mostly Cloudy
1:15 PM 44.2 °F 37.6 °F 32.2 °F 63% 30.21 in 10.0 mi SE 13.8 mph 17.3 mph N/A   Mostly Cloudy
1:35 PM 44.2 °F 38.0 °F 32.0 °F 62% 30.21 in 10.0 mi SSE 12.7 mph - N/A   Mostly Cloudy
1:55 PM 44.4 °F 38.6 °F 32.0 °F 62% 30.20 in 10.0 mi SSE 11.5 mph 17.3 mph N/A   Scattered Clouds
2:15 PM 44.8 °F 39.0 °F 31.5 °F 60% 30.19 in 10.0 mi SSE 11.5 mph 18.4 mph N/A   Scattered Clouds
2:35 PM 45.0 °F 39.3 °F 31.1 °F 58% 30.18 in 10.0 mi SE 11.5 mph 17.3 mph N/A   Mostly Cloudy
2:55 PM 43.7 °F 37.7 °F 31.1 °F 61% 30.18 in 10.0 mi SE 11.5 mph 16.1 mph N/A   Scattered Clouds
3:15 PM 43.3 °F 37.2 °F 30.6 °F 61% 30.18 in 10.0 mi SSE 11.5 mph 21.9 mph N/A   Clear
3:35 PM 43.7 °F 37.7 °F 30.7 °F 60% 30.17 in 10.0 mi SE 11.5 mph 16.1 mph N/A   Clear
3:55 PM 43.0 °F 36.4 °F 30.6 °F 62% 30.17 in 10.0 mi SE 12.7 mph 21.9 mph N/A   Clear
4:15 PM 42.1 °F 37.1 °F 31.1 °F 65% 30.17 in 10.0 mi SE 8.1 mph - N/A   Clear
4:35 PM 41.7 °F 37.3 °F 31.1 °F 66% 30.17 in 10.0 mi SE 6.9 mph - N/A   Clear
5:14 PM 41.0 °F 35.8 °F 30.2 °F 65% 30.16 in 10.0 mi SE 8.1 mph - N/A   Scattered Clouds
5:15 PM 40.6 °F 35.4 °F 31.1 °F 69% 30.16 in 10.0 mi SE 8.1 mph - N/A   Scattered Clouds
5:35 PM 40.5 °F 36.5 °F 31.1 °F 69% 30.16 in 10.0 mi ESE 5.8 mph - N/A   Clear
5:55 PM 40.1 °F 35.3 °F 31.5 °F 71% 30.16 in 10.0 mi SE 6.9 mph - N/A   Clear
6:15 PM 39.7 °F 34.9 °F 31.5 °F 72% 30.17 in 10.0 mi ESE 6.9 mph - N/A   Clear
6:35 PM 39.2 °F 35.0 °F 31.3 °F 73% 30.18 in 10.0 mi ESE 5.8 mph - N/A   Clear
6:55 PM 38.8 °F 33.8 °F 31.8 °F 76% 30.18 in 10.0 mi ESE 6.9 mph - N/A   Clear
7:15 PM 38.7 °F 32.4 °F 32.0 °F 77% 30.17 in 10.0 mi ESE 9.2 mph - N/A   Clear
7:35 PM 39.2 °F 33.0 °F 32.0 °F 75% 30.18 in 10.0 mi SE 9.2 mph 16.1 mph N/A   Clear
7:55 PM 39.2 °F 32.5 °F 32.0 °F 75% 30.18 in 10.0 mi SE 10.4 mph 16.1 mph N/A   Clear
8:15 PM 39.0 °F 32.3 °F 32.0 °F 76% 30.18 in 10.0 mi SE 10.4 mph - N/A   Clear
8:35 PM 39.2 °F 32.0 °F 32.0 °F 75% 30.17 in 10.0 mi SE 11.5 mph 17.3 mph N/A   Clear
8:55 PM 39.2 °F 31.6 °F 32.0 °F 75% 30.17 in 10.0 mi SE 12.7 mph 18.4 mph N/A   Clear
9:15 PM 39.2 °F 32.0 °F 32.2 °F 76% 30.16 in 10.0 mi SE 11.5 mph 19.6 mph N/A   Clear
9:35 PM 38.8 °F 32.6 °F 32.4 °F 78% 30.16 in 10.0 mi SE 9.2 mph 17.3 mph N/A   Clear
9:55 PM 38.7 °F 30.5 °F 32.5 °F 79% 30.16 in 10.0 mi SSE 13.8 mph 17.3 mph N/A   Clear
10:15 PM 38.7 °F 31.8 °F 32.9 °F 80% 30.16 in 10.0 mi SE 10.4 mph - N/A   Clear
10:35 PM 38.3 °F 31.4 °F 32.9 °F 81% 30.16 in 10.0 mi SE 10.4 mph 17.3 mph N/A   Clear
10:55 PM 38.3 °F 31.4 °F 33.1 °F 81% 30.17 in 10.0 mi SE 10.4 mph 16.1 mph N/A   Clear